HJ3JCG-13 Weather Reports


time (UTC)temp
F
wind
direction
speed
knots
gust
knots
rain 1hr
in
rain 24hr
in
rain mn
in
humidity
%
barometer
mb
20260505002514 58 60 4.3 0.0 0.00 0.00 0.00 75 1017.0
20260505001514 58 60 4.3 0.0 0.00 0.00 0.00 75 1017.0
20260505000513 58 60 4.3 0.0 0.00 0.00 0.00 75 1017.0
20260504235512 60 70 4.3 0.0 0.00 0.00 0.00 77 1017.0
20260504234512 60 70 4.3 0.0 0.00 0.00 0.00 77 1017.0
20260504233511 60 70 4.3 0.0 0.00 0.00 0.00 77 1017.0
20260504232511 58 110 2.6 3.5 0.00 0.00 0.00 72 1016.0
20260504231510 58 110 2.6 3.5 0.00 0.00 0.00 72 1016.0
20260504230510 58 110 2.6 3.5 0.00 0.00 0.00 72 1016.0
20260504225509 58 110 2.6 3.5 0.00 0.00 0.00 72 1016.0
20260504224509 62 70 4.3 0.0 0.00 0.00 0.00 68 1016.0
20260504223508 62 70 4.3 0.0 0.00 0.00 0.00 68 1016.0
20260504222507 60 122 2.6 4.3 0.00 0.00 0.00 71 1014.0
20260504221507 60 122 2.6 4.3 0.00 0.00 0.00 71 1015.0
20260504220506 60 122 2.6 4.3 0.00 0.00 0.00 73 1015.0
20260504215506 60 60 8.7 0.0 0.00 0.00 0.00 73 1015.0
20260504214505 60 60 8.7 0.0 0.00 0.00 0.00 73 1015.0
20260504213505 60 60 8.7 0.0 0.00 0.00 0.00 72 1014.0
20260504212504 60 60 8.7 0.0 0.00 0.00 0.00 72 1014.0
20260504211504 60 60 8.7 0.0 0.00 0.00 0.00 72 1014.0
20260504210503 60 60 8.7 0.0 0.00 0.00 0.00 70 1014.0
20260504205502 60 117 2.6 3.5 0.00 0.00 0.00 68 1014.0
20260504204502 60 117 2.6 3.5 0.00 0.00 0.00 68 1014.0
20260504203501 60 117 2.6 3.5 0.00 0.00 0.00 68 1014.0
20260504202501 60 100 2.6 3.5 0.00 0.00 0.00 68 1014.0
20260504201500 60 100 2.6 3.5 0.00 0.00 0.00 68 1014.0
20260504200500 60 100 2.6 3.5 0.00 0.00 0.00 71 1014.0
20260504195459 60 100 2.6 3.5 0.00 0.00 0.00 71 1014.0
20260504194459 60 120 4.3 0.0 0.00 0.00 0.00 78 1014.0
20260504193458 62 100 2.6 3.5 0.00 0.00 0.00 68 1014.0
20260504192457 63 120 2.6 5.2 0.00 0.00 0.00 69 1014.0
20260504191457 63 0 2.6 0.0 0.00 0.00 0.00 68 1014.0
20260504190456 63 0 2.6 0.0 0.00 0.00 0.00 68 1014.0
20260504185456 63 150 9.6 0.0 0.00 0.00 0.00 66 1014.0
20260504184455 63 150 9.6 0.0 0.00 0.00 0.00 66 1014.0
20260504183455 63 150 9.6 0.0 0.00 0.00 0.00 67 1014.0
20260504182454 63 150 9.6 0.0 0.00 0.00 0.00 67 1014.0
20260504181453 63 150 9.6 0.0 0.00 0.00 0.00 67 1014.0
20260504180453 63 120 5.2 0.0 0.00 0.00 0.00 66 1014.0
20260504175452 63 120 5.2 0.0 0.00 0.00 0.00 67 1014.0
20260504174452 63 120 5.2 0.0 0.00 0.00 0.00 69 1015.0
20260504173451 63 120 5.2 0.0 0.00 0.00 0.00 70 1015.0
20260504172450 63 120 5.2 0.0 0.00 0.00 0.00 71 1016.0
20260504171450 63 120 7.0 0.0 0.00 0.00 0.00 76 1016.0
20260504170449 63 120 7.0 0.0 0.00 0.00 0.00 76 1016.0
20260504160446 63 0 3.5 0.0 0.00 0.00 0.00 87 1016.0
20260504150443 63 0 0.9 0.0 0.00 0.00 0.00 99 1016.0
20260504140439 56 0 1.7 0.0 0.00 0.00 0.00 99 1017.0
20260504130436 53 360 2.6 0.0 0.00 0.00 0.00 99 1018.0
20260504110429 53 0 0.9 0.0 0.00 0.00 0.00 99 1018.0
20260504100426 53 0 0.9 0.0 0.00 0.00 0.00 99 1018.0
20260504081420 53 20 3.5 0.0 0.00 0.00 0.00 99 1018.0
20260504080419 53 30 3.5 0.0 0.00 0.00 0.00 99 1018.0
20260504050408 53 280 3.5 0.0 0.00 0.00 0.00 99 1020.0
20260504045408 53 280 3.5 0.0 0.00 0.00 0.00 99 1020.0
20260504044407 53 280 3.5 0.0 0.00 0.00 0.00 99 1020.0
20260504043407 53 280 3.5 0.0 0.00 0.00 0.00 99 1020.0
20260504042406 53 280 3.5 0.0 0.00 0.00 0.00 99 1020.0
20260504041405 53 280 3.5 0.0 0.00 0.00 0.00 99 1020.0
20260504040405 53 340 0.9 0.0 0.00 0.00 0.00 99 1020.0
20260504035404 55 340 0.9 0.0 0.00 0.00 0.00 10 1021.0
20260504034403 55 340 0.9 0.0 0.00 0.00 0.00 10 1021.0
20260504033403 55 340 0.9 0.0 0.00 0.00 0.00 10 1020.0
20260504032402 55 340 0.9 0.0 0.00 0.00 0.00 10 1020.0
20260504031402 55 0 1.7 0.0 0.00 0.00 0.00 10 1020.0
20260504030401 55 0 1.7 0.0 0.00 0.00 0.00 10 1020.0
20260504025400 55 0 1.7 0.0 0.00 0.00 0.00 10 1020.0
20260504024400 55 0 1.7 0.0 0.00 0.00 0.00 10 1020.0
20260504023359 55 0 1.7 0.0 0.00 0.00 0.00 98 1020.0
20260504022359 55 0 1.7 0.0 0.00 0.00 0.00 98 1019.0
20260504021358 55 0 1.7 0.0 0.00 0.00 0.00 98 1019.0
20260504020358 55 0 1.7 0.0 0.00 0.00 0.00 98 1019.0
20260504015357 55 0 1.7 0.0 0.00 0.00 0.00 98 1020.0
20260504014356 55 0 1.7 0.0 0.00 0.00 0.00 98 1019.0
20260504013355 55 0 1.7 0.0 0.00 0.00 0.00 96 1019.0
20260504012355 56 0 1.7 0.0 0.00 0.00 0.00 95 1018.0
20260504011354 56 0 1.7 0.0 0.00 0.00 0.00 94 1018.0
20260504010354 56 250 2.6 0.0 0.00 0.00 0.00 93 1018.0
20260504005353 56 250 2.6 0.0 0.00 0.00 0.00 93 1018.0
20260504004353 56 250 2.6 0.0 0.00 0.00 0.00 93 1018.0
20260504003352 56 250 2.6 0.0 0.00 0.00 0.00 93 1018.0